Overview Statistics Trail Chart Weather Telemetry Raw packets
 

This is the latest recevied weather packets stored in our database for station/object WA5TET. If no packets are shown the sender has not sent any weather packets the latest 10 day(s).

<< 108 109 110 111 112 113 114 >>
Time Temp. Humidity Pressure Rain* Wind** Luminosity Snow
1787792894 33.33° C 47% 1010.8 hPa 0 mm - 1 W/m² -
1787792588 33.33° C 47% 1010.7 hPa 0 mm - 5 W/m² -
1787792286 33.33° C 46% 1010.9 hPa 0 mm - 11 W/m² -
1787791985 33.89° C 46% 1010.8 hPa 0 mm - 21 W/m² -
1787791684 33.89° C 46% 1010.9 hPa 0 mm - 29 W/m² -
1787791380 33.89° C 46% 1010.6 hPa 0 mm - 49 W/m² -
1787791080 33.89° C 45% 1010.7 hPa 0 mm - 52 W/m² -
1787790776 34.44° C 45% 1010.6 hPa 0 mm - 51 W/m² -
1787790475 34.44° C 44% 1010.5 hPa 0 mm - 56 W/m² -
1787790173 35° C 43% 1010.6 hPa 0 mm - 57 W/m² -
1787789870 35.56° C 42% 1010.5 hPa 0 mm - 51 W/m² -
1787789566 36.11° C 40% 1010.6 hPa 0 mm - 41 W/m² -
1787789265 36.67° C 36% 1010.5 hPa 0 mm - 27 W/m² -
1787788961 36.67° C 34% 1010.3 hPa 0 mm - 21 W/m² -
1787788658 36.67° C 33% 1010.4 hPa 0 mm - 19 W/m² -
1787788352 36.67° C 33% 1010.5 hPa 0 mm - 19 W/m² -
1787788048 36.67° C 33% 1010.6 hPa 0 mm - 20 W/m² -
1787787744 36.67° C 33% 1010.8 hPa 0 mm - 21 W/m² -
1787787442 36.67° C 33% 1011 hPa 0 mm - 23 W/m² -
1787787137 36.67° C 33% 1010.8 hPa 0 mm - 28 W/m² -
1787786837 36.67° C 33% 1010.6 hPa 0 mm - 34 W/m² -
1787786532 36.67° C 33% 1010.7 hPa 0 mm - 39 W/m² -
1787786228 36.67° C 32% 1010.6 hPa 0 mm - 41 W/m² -
1787785923 37.22° C 32% 1010.7 hPa 0 mm - 39 W/m² -
1787785619 37.22° C 32% 1010.7 hPa 0 mm - 37 W/m² -

* Rain latest hour (hover to see other rain measurements)
** Current wind speed in m/s (hover to see current wind gust speed)